Location: Casone le Fosse
(44.6547°N, 12.1103°E)
Time: 10:24:17
(UTC+00:00)

PSLV R/B - Pass Details

Date: 29 October 2020
Orbit: 567 x 599 km, 98.2° (Epoch: 28 November)

Event Time Altitude Azimuth Distance (km) Brightness Sun altitude
Rises 17:34:22 0° 12° (NNE) 2,838 7.3 -16.5°
Reaches altitude 10° 17:36:33 10° 12° (NNE) 1,927 6.4 -16.9°
Maximum altitude 17:40:44 82° 286° (WNW) 598 4.0 -17.7°
Drops below altitude 10° 17:44:51 10° 198° (SSW) 1,892 6.8 -18.4°
Sets 17:46:58 0° 197° (SSW) 2,782 7.7 -18.8°
